Weather History for KLAR - June, 2011

Change the Weather History Date:

Friday, June 24, 2011

  Actual Average Record
Temperature  
Mean Temperature 65 °F 60 °F  
Max Temperature 80 °F 76 °F 91 °F (1988)
Min Temperature 50 °F 44 °F 32 °F (1976)
Degree Days  
Heating Degree Days 0 5  
Month to date heating degree days 210 213  
Since 1 June heating degree days 210 213  
Since 1 July heating degree days 8668 8802  
Cooling Degree Days 0 0  
Month to date cooling degree days 0 0  
Year to date cooling degree days 0 0  
Since 1 June cooling degree days 0 0  
Growing Degree Days 17 (Base 50)    
Moisture  
Dew Point 43 °F    
Average Humidity 55    
Maximum Humidity 89    
Minimum Humidity 20    
Precipitation  
Precipitation 0.04 in 0.04 in 0.46 in (1958)
Month to date precipitation 1.03 1.30  
Year to date precipitation 5.60 5.25  
Sea Level Pressure  
Sea Level Pressure 29.83 in    
Wind  
Wind Speed 10 mph (SW)    
Max Wind Speed 32 mph    
Max Gust Speed 41 mph    
Visibility 10 miles    
Events Rain , Thunderstorm    
T = Trace of Precipitation, MM = Missing Value Source: NWS Daily Summary

Daily Weather History Graph

Daily Weather History Graph

Search for Another Location

Airport or City:

Trip Planner

Search our weather history database for the weather conditions in past years. The results will help you decide how hot, cold, wet, or windy it might be!

Date:

Astronomy

Jun. 24, 2011 Rise Set
Actual Time 5:30 AM MDT 8:39 PM MDT
Civil Twilight 4:56 AM MDT 9:13 PM MDT
Nautical Twilight 4:12 AM MDT 9:57 PM MDT
Astronomical Twilight 3:21 AM MDT 10:49 PM MDT
Moon 12:55 AM MDT (6/24) 2:30 PM MDT (6/24)
Length of Visible Light 16h 17m
Length of Day
15h 09m
Last Quarter, 38% of the Moon is Illuminated
Jun 24
Last Quarter
Jul 1
New
Jul 8
First Quarter
Jul 15
Full
Jul 22
Last Quarter

Hourly Weather History & Observations

Time (MDT) Temp. Dew Point Humidity Pressure Visibility Wind Dir Wind Speed Gust Speed Precip Events Conditions
12:50 AM 59.0 °F 44.6 °F 59% 30.10 in 10.0 mi SW 6.9 mph - N/A Thunderstorm Scattered Clouds
12:53 AM 57.9 °F 46.0 °F 65% 29.78 in 10.0 mi WSW 9.2 mph - N/A Thunderstorm Mostly Cloudy
1:14 AM 59.0 °F 48.2 °F 67% 30.14 in 10.0 mi WNW 5.8 mph - 0.01 in Rain Light Rain
1:53 AM 57.2 °F 46.4 °F 67% 30.06 in 10.0 mi ESE 6.9 mph - N/A   Mostly Cloudy
2:53 AM 55.4 °F 46.4 °F 72% 30.09 in 10.0 mi West 13.8 mph 19.6 mph N/A Thunderstorm Scattered Clouds
3:11 AM 59.0 °F 44.6 °F 59% 30.03 in 10.0 mi South 21.9 mph 32.2 mph 0.00 in Rain Light Rain
3:53 AM 57.9 °F 44.1 °F 60% 29.70 in 10.0 mi SW 17.3 mph - 0.00 in   Mostly Cloudy
4:53 AM 55.4 °F 46.4 °F 72% 30.06 in 10.0 mi SSW 12.7 mph - N/A   Scattered Clouds
5:53 AM 57.2 °F 42.8 °F 59% 30.07 in 10.0 mi SW 10.4 mph - N/A   Partly Cloudy
6:53 AM 57.0 °F 46.9 °F 69% 29.75 in 10.0 mi South 8.1 mph - N/A   Clear
7:53 AM 61.0 °F 45.0 °F 56% 29.74 in 10.0 mi South 6.9 mph - N/A   Clear
8:53 AM 64.9 °F 45.0 °F 48% 29.75 in 10.0 mi West 8.1 mph - N/A   Clear
9:53 AM 70.0 °F 43.0 °F 38% 29.72 in 10.0 mi East 4.6 mph - N/A   Clear
10:53 AM 75.9 °F 42.1 °F 30% 29.68 in 10.0 mi NE 6.9 mph - N/A   Clear
11:53 AM 77.0 °F 39.2 °F 26% 30.03 in 10.0 mi SE 10.4 mph - N/A   Clear
12:53 PM 72.0 °F 39.0 °F 30% 29.67 in 10.0 mi Calm Calm - 0.01 in Rain Light Rain
1:08 PM 71.6 °F 46.4 °F 41% 30.00 in 10.0 mi SE 15.0 mph 23.0 mph 0.00 in Rain , Thunderstorm Light Thunderstorms and Rain
1:28 PM 66.2 °F 46.4 °F 49% 30.01 in 10.0 mi SSE 15.0 mph 32.2 mph 0.00 in Rain Light Rain
1:53 PM 68.0 °F 50.0 °F 52% 29.68 in 10.0 mi SE 11.5 mph - 0.01 in Rain Light Rain
2:53 PM 75.9 °F 48.9 °F 38% 29.64 in 10.0 mi NE 17.3 mph 21.9 mph 0.00 in   Clear
3:04 PM 75.2 °F 44.6 °F 34% 29.98 in 10.0 mi NNE 16.1 mph 26.5 mph N/A   Clear
3:53 PM 78.1 °F 37.9 °F 24% 29.61 in 10.0 mi Variable 5.8 mph 26.5 mph N/A   Clear
4:53 PM 75.2 °F 44.6 °F 34% 29.96 in 10.0 mi SSE 4.6 mph 18.4 mph N/A   Mostly Cloudy
5:53 PM 77.0 °F 32.0 °F 19% 29.60 in 10.0 mi West 13.8 mph 41.4 mph 0.00 in Rain , Thunderstorm Light Rain
6:11 PM 75.2 °F 33.8 °F 22% 29.95 in 10.0 mi West 6.9 mph - 0.00 in   Clear
6:53 PM 79.0 °F 28.9 °F 16% 29.59 in 10.0 mi West 16.1 mph 25.3 mph 0.00 in   Clear
7:53 PM 72.0 °F 28.9 °F 20% 29.62 in 10.0 mi WSW 12.7 mph - N/A   Clear
8:53 PM 64.9 °F 30.9 °F 28% 29.64 in 10.0 mi West 6.9 mph - N/A   Clear
9:53 PM 64.9 °F 43.0 °F 45% 29.65 in 10.0 mi North 9.2 mph - N/A   Clear
10:53 PM 57.0 °F 50.0 °F 77% 29.65 in 10.0 mi NW 11.5 mph - N/A   Partly Cloudy
11:53 PM 53.1 °F 50.0 °F 89% 29.68 in 10.0 mi NW 6.9 mph - N/A   Clear